Preview of NWS' New Version of Forecast
This preview is not operational and should not be used for support decisions.

Regional Weather Roundup (RWR)

Issued by National Weather Service (NWS)

                            
000
ASUS44 KJAN 212310
RWRMS 

MISSISSIPPI HOURLY WEATHER ROUNDUP
NATIONAL WEATHER SERVICE JACKSON MS
600 PM CDT WED AUG 21 2019

NOTE: "FAIR: INDICATES FEW OR NO CLOUDS BELOW 12,000 FEET WITH NO
SIGNIFICANT WEATHER AND/OR OBSTRUCTIONS TO VISIBILITY.

MSZ001>002-007>008-010>013-018>021-025>028-034>036-220000-
NORTHWEST MISSISSIPPI
  
CITY           SKY/WX    TMP DP  RH WIND       PRES   REMARKS
BATESVILLE     FAIR      88  72  58 SE5       29.97R HX  94           
CLARKSDALE       N/A     93  73  52 CALM      29.97R HX 102           
CLEVELAND      FAIR      92  73  52 E7        29.95S HX 100           
GREENWOOD      FAIR      87  74  64 E8        29.97R HX  95           
GREENVILLE     FAIR      92  75  57 SE3       29.95S HX 103           
OLIVE BRANCH   MOSUNNY   90  70  51 E5        29.97R HX  95           
OXFORD         FAIR      91  72  52 CALM      29.99F HX  98           
TUNICA           N/A     90  73  58 S5        29.98R HX  98           
$$

MSZ003>006-009-014>017-022>024-029>033-037>039-220000-
NORTHEAST MISSISSIPPI
  
CITY           SKY/WX    TMP DP  RH WIND       PRES   REMARKS
ABERDEEN       FAIR      88  70  55 E3        30.00F HX  92           
COLUMBUS AFB   FAIR      89  73  58 SE7       29.99S HX  97           
CORINTH        FAIR      88  70  55 SW5       29.98S HX  92           
GOLDN TRIANGLE FAIR      89  76  65 SE8       30.00F HX 100           
STARKVILLE     FAIR      88  72  58 SE5       30.01S HX  94           
TUPELO         FAIR      90  73  57 S10       29.98F HX  98           
$$

MSZ040-058-220000-
CENTRAL MISSISSIPPI
  
CITY           SKY/WX    TMP DP  RH WIND       PRES   REMARKS
JACKSON INTL   PTSUNNY   80  73  79 S13       30.01R                  
JACKSON HAWKNS FAIR      78  74  87 S9        30.01F                  
MERIDIAN KEY   FAIR      77  74  90 W6        30.03S                  
MERIDIAN NAS   PTSUNNY   84  73  69 SW6       30.02S HX  90           
RAYMOND        FAIR      75  75 100 CALM      29.99F                  
VICKSBURG VKS  MOCLDY    79  75  89 VRB6G12   30.01R                  
$$

MSZ059>079-220000-
SOUTH MISSISSIPPI
  
CITY           SKY/WX    TMP DP  RH WIND       PRES   REMARKS
BROOKHAVEN     DRIZZLE   75  75 100 CALM      30.03F                  
HATTIESBURG    FAIR      77  74  90 SE3       30.04F                  
LAUREL         CLEAR     77  74  88 S6        30.03F                  
MCCOMB         CLOUDY    78  74  87 S6        30.03F                  
NATCHEZ        FAIR      77  75  93 S10       30.01S                  
PINE BELT      FAIR      76  75  97 S5        30.04F                  
$$

MSZ080>082-220000-
COASTAL MISSISSIPPI
  
CITY           SKY/WX    TMP DP  RH WIND       PRES   REMARKS
BILOXI         FAIR      84  74  72 S7        30.02F HX  92           
PASCAGOULA     FAIR      85  73  67 S3        30.03S HX  91           
GULFPORT       FAIR      84  74  71 S5        30.01F HX  91           
$$

LAZ007>009-015>016-023>026-220000-
NORTHEAST LOUISIANA
  
CITY           SKY/WX    TMP DP  RH WIND       PRES   REMARKS
BASTROP        FAIR      95  70  44 E3        29.95F HX 101           
TALLULAH/VBURG FAIR      84  73  69 SE21G26   29.99R HX  90           
VIDALIA        MOCLDY    79  74  85 SE10G16   30.00S                  
$$